Regional Weather Roundup
Issued by NWS

Home | Current Version | Previous Version | Text Only | Print | Product List | Glossary Off
Versions: 1 2 3 4 5 6 7 8 9 10 11 12 13 14 15 16 17 18 19 20 21 22 23 24 25 26 27 28 29 30 31 32 33 34 35 36 37 38 39 40 41 42 43 44 45 46 47 48 49 50

624
ASUS45 KCYS 191510
RWRWY

WYOMING REGIONAL WEATHER ROUNDUP
NATIONAL WEATHER SERVICE CHEYENNE WY
800 AM MST FRI JAN 19 2018

NOTE:  "FAIR" INDICATES FEW OR NO CLOUDS BELOW 12,000 FEET
WITH NO SIGNIFICANT WEATHER AND/OR OBSTRUCTIONS TO VISIBILITY.

WYZ001-191600-
YELLOWSTONE NATIONAL PARK

CITY           SKY/WX    TMP DP  RH WIND       PRES   REMARKS
LK YELLOWSTONE   N/A     29  27  92 VRB3      29.73R
W YELLOWSTONE  NOT AVBL

$$
WYZ002>013-054>058-071-098>099-191600-
NORTHERN WYOMING

CITY           SKY/WX    TMP DP  RH WIND       PRES   REMARKS
JACKSON        LGT RAIN  37  28  70 SW13      29.75R WCI  29
CODY           LGT SNOW  32  30  93 NE3       29.69S FOG
GREYBULL       FAIR      26  23  88 S6        29.67R WCI  19
WORLAND        FAIR      28  25  88 S7        29.68R WCI  21
SHERIDAN       CLOUDY    36  33  89 CALM      29.71F
BUFFALO        CLOUDY    35  30  82 N7        29.71S WCI  29
GILLETTE       FAIR      33  29  85 NW9       29.70R WCI  25
HULETT         FAIR      36  28  75 NW9       29.71R WCI  29
NEWCASTLE      FAIR      37  19  48 NE6       29.69S WCI  33

$$
WYZ014>020-022>026-101>103-191600-
CENTRAL WYOMING

CITY           SKY/WX    TMP DP  RH WIND       PRES   REMARKS
BIG PINEY      FAIR      21  18  88 E6        29.78R WCI  13
PINEDALE       FAIR      23  21  93 CALM      29.80R
DUBOIS         PTSUNNY   37  23  56 W13       29.68S WCI  29
LANDER         FAIR      45  27  49 S7        29.65F
RIVERTON       FAIR      35  22  58 S3        29.67F
CASPER         FAIR      41  20  43 SW25G37   29.71R
DOUGLAS        FAIR      42  21  43 W3        29.71S

$$
WYZ021-027>030-104>119-191600-
SOUTHERN WYOMING

CITY           SKY/WX    TMP DP  RH WIND       PRES   REMARKS
EVANSTON       FAIR      41  28  60 SW21      29.81S
FORT BRIDGER   FAIR      40  28  61 SW8       29.83S WCI  35
ROCK SPRINGS   FAIR      32  19  58 SE13      29.81S WCI  22
DIXON            N/A     39  12  32 SW10G20   29.95S WCI  32
RAWLINS        FAIR      41  18  39 SW23G30   29.80F
SARATOGA       FAIR      41  19  42 SW15G26   29.86R
LARAMIE        FAIR      40  17  39 SW22      29.81F WCI  30
CHEYENNE       FAIR      47  19  33 W3        29.81R
TORRINGTON     FAIR      38  27  64 W9        29.72S WCI  31

$$




USA.gov is the U.S. government's official web portal to all federal, state and local government web resources and services.